Location: Unspecified
(52.4292°N, 19.3359°E)
Time: 01:02:48
(UTC+02:00)

Transit 2A Rocket - Pass Details

Date: 21 May 2024
Orbit: 583 x 910 km, 66.7° (Epoch: 12 June)

Event Time Altitude Azimuth Distance (km) Brightness Sun altitude
Rises 04:32:53 0° 190° (S) 2,973 7.6 -1.4°
Reaches altitude 10° 04:35:13 10° 182° (S) 2,112 6.9 -1.2°
Maximum altitude 04:39:37 37° 116° (ESE) 1,121 6.3 -0.6°
Drops below altitude 10° 04:44:26 10° 50° (NE) 2,325 9.8 0.0°
Sets 04:47:07 0° 43° (NE) 3,314 10.4 0.3°
